Location: LDNL
(36.4545°S, 141.6685°E)
Time: 13:03:29
(UTC+10:00)

ACS3 Solar Sail - Visible Passes

Search period start: 14 July 2025 00:00
Search period end: 24 July 2025 00:00
Orbit: 912 x 1023 km, 97.5° (Epoch: 13 July)

Date Brightness Start Highest point End Pass type
(mag) Time Alt. Az. Time Alt. Az. Time Alt. Az.
14 Jul 2.7 04:48:42 10° NNE 04:52:33 41° NNE 04:52:33 41° NNE visible
14 Jul 3.7 06:36:31 10° WNW 06:37:03 11° WNW 06:37:03 11° WNW visible
14 Jul 4.4 19:17:12 10° SSW 19:20:09 14° WSW 19:23:04 10° W visible
15 Jul 4.5 03:30:29 10° ENE 03:30:47 11° ENE 03:30:47 11° ENE visible
15 Jul 2.6 05:11:21 10° N 05:15:16 39° NNW 05:15:16 39° NNW visible
15 Jul 2.4 17:54:07 10° S 18:00:17 62° WSW 18:06:14 10° NNW visible
16 Jul 4.1 03:51:44 10° NE 03:53:27 18° ENE 03:53:27 18° ENE visible
16 Jul 2.8 05:34:20 10° NNW 05:37:56 30° NW 05:37:56 30° NW visible
16 Jul 3.2 18:16:54 10° S 18:22:39 40° WSW 18:28:12 10° NW visible
17 Jul 3.6 04:13:27 10° NE 04:16:07 25° NE 04:16:07 25° NE visible
17 Jul 3.2 05:57:46 10° NNW 06:00:35 21° WNW 06:00:35 21° WNW visible
17 Jul 3.8 18:39:54 10° SSW 18:44:53 26° WSW 18:49:44 10° WNW visible
18 Jul 3.1 04:35:31 10° NNE 04:38:45 33° NNE 04:38:45 33° NNE visible
18 Jul 3.6 06:21:58 10° NW 06:23:13 13° WNW 06:23:13 13° WNW visible
18 Jul 4.3 19:03:18 10° SSW 19:07:01 17° WSW 19:10:39 10° W visible
19 Jul 2.8 04:57:55 10° N 05:01:21 35° N 05:01:21 35° N visible
19 Jul 4.7 19:28:30 10° SW 19:29:01 10° WSW 19:29:31 10° WSW visible
20 Jul 4.4 03:38:48 10° ENE 03:39:28 13° ENE 03:39:28 13° ENE visible
20 Jul 2.9 05:20:39 10° N 05:23:57 30° NNW 05:23:57 30° NNW visible
20 Jul 2.8 18:03:18 10° S 18:09:13 48° WSW 18:14:55 10° NW visible
21 Jul 4.0 04:00:14 10° NE 04:02:02 19° NE 04:02:02 19° NE visible
21 Jul 3.2 05:43:45 10° NNW 05:46:30 22° NW 05:46:30 22° NW visible
21 Jul 3.6 18:26:06 10° S 18:31:24 31° WSW 18:36:33 10° NW visible
22 Jul 3.5 04:22:03 10° NNE 04:24:35 25° NE 04:24:35 25° NE visible
22 Jul 3.5 06:07:27 10° NW 06:09:03 15° WNW 06:09:03 15° WNW visible
22 Jul 4.2 18:49:11 10° SSW 18:53:29 20° WSW 18:57:40 10° WNW visible
23 Jul 3.2 04:44:13 10° NNE 04:47:06 29° NNE 04:47:06 29° NNE visible
23 Jul 4.4 19:12:58 10° SW 19:15:26 13° WSW 19:17:53 10° W visible
